This demonstration page uses our WeatherBlox Daily Observations layout. Learn more.

Left ArrowRight Arrow

Hourly Observations for August 30, 2022

Temp ( °F °C ) Dew Point ( °F °C ) Humidity (%) Winds ( mph kmh ) Pressure ( in mb ) Visibility ( mi km ) Precip ( " mm )
12:52 am 00:52 Clear 67 19.4 66 18.9 97 97 ENE 5 7 29.99 1016 10 16 0.00 0.00
1:52 am 01:52 Clear 65 18.3 65 18.3 100 100 Calm 29.99 1016 8 13 0.00 0.00
2:52 am 02:52 Partly Cloudy with Mist and Fog 66 18.9 65 18.3 96 96 Calm 29.99 1016 6 10 0.00 0.00
3:01 am 03:01 Mostly Cloudy 67 19.4 66 18.9 97 97 NE 3 6 30.00 1016 7 11 0.00 0.00
3:14 am 03:14 Cloudy with Mist and Fog 67 19.4 66 18.9 97 97 NNE 7 11 30.01 1016 1 2 0.00 0.00
3:21 am 03:21 Mostly Clear with Fog 67 19.4 66 18.9 97 97 NNE 8 13 30.01 1016 0 0 0.00 0.00
3:52 am 03:52 Mostly Clear with Fog 66 18.9 66 18.9 100 100 NNE 3 6 30.01 1016 0 0 0.00 0.00
4:52 am 04:52 Mostly Clear with Fog 66 18.9 66 18.9 100 100 ENE 5 7 30.03 1017 0 0 0.00 0.00
5:52 am 05:52 Mostly Clear with Fog 66 18.9 66 18.9 100 100 S 5 7 30.03 1017 1 1 0.00 0.00
6:21 am 06:21 Mostly Clear with Fog 66 18.9 66 18.9 100 100 S 5 7 30.02 1017 0 0 0.00 0.00
6:52 am 06:52 Partly Cloudy with Fog 65 18.3 65 18.3 100 100 S 6 9 30.04 1017 0 0 0.00 0.00
7:17 am 07:17 Partly Cloudy with Fog 66 18.9 66 18.9 100 100 S 6 9 30.05 1018 1 1 0.00 0.00
7:49 am 07:49 Partly Cloudy with Mist and Fog 66 19 66 19 100 100 S 5 7 30.06 1018 1 2 0.00 0.00
7:52 am 07:52 Cloudy with Mist and Fog 66 18.9 66 18.9 100 100 SSW 3 6 30.06 1018 1 2 0.00 0.00
8:08 am 08:08 Mostly Cloudy with Mist and Fog 67 19.4 67 19.4 100 100 Calm 30.06 1018 3 5 0.00 0.00
8:24 am 08:24 Cloudy 68 20 68 20 100 100 SSW 3 6 30.05 1018 9 14 0.00 0.00
8:52 am 08:52 Cloudy 70 21.1 69 20.6 97 97 SSW 3 6 30.07 1018 10 16 0.00 0.00
9:52 am 09:52 Partly Cloudy 76 24.4 70 21.1 82 82 Calm 30.07 1018 10 16 0.00 0.00
10:52 am 10:52 Mostly Sunny 79 26.1 70 21.1 74 74 N 5 7 30.08 1019 10 16 0.00 0.00
11:52 am 11:52 Sunny 83 28.3 71 21.7 67 67 Calm 30.08 1019 10 16 0.00 0.00
12:52 pm 12:52 Sunny 86 30 66 18.9 51 51 N 8 13 30.07 1018 10 16 0.00 0.00
1:52 pm 13:52 Sunny 87 30.6 63 17.2 45 45 VRB 6 9 30.06 1018 10 16 0.00 0.00
2:52 pm 14:52 Sunny 89 31.7 60 15.6 38 38 N 13 20 30.04 1017 10 16 0.00 0.00
3:52 pm 15:52 Sunny 88 31.1 59 15 38 38 N 14 22 30.03 1017 10 16 0.00 0.00
4:52 pm 16:52 Sunny 88 31.1 58 14.4 36 36 NNW 10 17 30.02 1017 10 16 0.00 0.00
5:52 pm 17:52 Sunny 86 30 57 13.9 37 37 N 10 17 30.02 1017 10 16 0.00 0.00
6:52 pm 18:52 Sunny 83 28.3 60 15.6 46 46 N 9 15 30.03 1017 10 16 0.00 0.00
7:52 pm 19:52 Clear 77 25 60 15.6 56 56 N 8 13 30.04 1017 10 16 0.00 0.00
8:52 pm 20:52 Clear 74 23.3 59 15 60 60 Calm 30.06 1018 10 16 0.00 0.00
9:52 pm 21:52 Clear 70 21.1 61 16.1 73 73 N 3 6 30.09 1019 10 16 0.00 0.00
10:52 pm 22:52 Clear 72 22.2 59 15 64 64 ENE 3 6 30.09 1019 10 16 0.00 0.00
11:52 pm 23:52 Clear 67 19.4 59 15 76 76 Calm 30.09 1019 10 16 0.00 0.00

Powered by AerisWeather